Regional Weather Roundup
Issued by NWS Kansas City/Pleasant Hill, MO

Home | Current Version | Previous Version | Text Only | Print | Product List | Glossary On
Versions: 1 2 3 4 5 6 7 8 9 10 11 12 13 14 15 16 17 18 19 20 21 22 23 24 25 26 27
000
ASUS43 KEAX 041410
RWREAX

WEATHER ROUNDUP FOR EASTERN KANSAS AND NORTHWEST MISSOURI
NATIONAL WEATHER SERVICE KANSAS CITY/PLEASANT HILL MO
800 AM CST SUN DEC 04 2016

KSZ040-057-103>105-MOZ028-029-037-043-041500-
...KANSAS CITY METROPOLITAN AREA...

CITY           SKY/WX    TMP DP  RH WIND       PRES   REMARKS
K.C. INTL      LGT RAIN  37  34  89 SW6       30.00S WCI  32
K.C. DOWNTOWN  LGT RAIN  38  36  92 SW6       30.01S WCI  33
LEES SUMMIT    MIX PCPN  37  35  92 SW9       30.00F WCI  30
OLATHE - IXD   CLOUDY    37  36  96 W7        30.01S WCI  32
OLATHE - OJC   MIX PCPN  36  34  92 SW5       30.01R WCI  32
LAWRENCE       LGT RAIN  38  36  92 W7        30.03R WCI  33

$$

MOZ001>008-011>017-020>025-030>033-038>040-044>046-053-054-041500-
...NORTHERN AND CENTRAL MISSOURI...

CITY           SKY/WX    TMP DP  RH WIND       PRES   REMARKS
ST. JOSEPH     LGT RAIN  36  34  92 W7        30.02R WCI  30
MOSBY          LGT RAIN  36  36 100 SW3       30.01S
WARRENSBURG    LGT RAIN  36  36 100 S3        30.01F
WHITEMAN AFB   FLURRIES  35  35 100 S6        30.00F WCI  30
CLINTON        LGT RAIN  37  37 100 CALM      30.01S
SEDALIA        MIX PCPN  36  34  92 S3        30.02S
WARSAW         NOT AVBL
CHILLICOTHE      N/A     33  32  96 CALM      30.02F
KIRKSVILLE     SNOW      33  33 100 E3        30.03F VSB 1/2

$$

MOZ041-047>049-056>058-063>065-088>090-097-041500-
...EASTERN AND SOUTHERN MISSOURI...

CITY           SKY/WX    TMP DP  RH WIND       PRES   REMARKS
ST. LOUIS INTL LGT RAIN  38  33  82 E8        30.02F WCI  32
SPIRIT OF STL  MIX PCPN  37  37 100 E5        30.01F FOG     WCI  33
COLUMBIA       LGT RAIN  37  36  96 SE5       30.01R FOG     WCI  33
JEFFERSON CITY LGT RAIN  37  36  96 SE3       30.02S FOG
ROLLA          MIX PCPN  36  35  96 S5        29.98S VSB 3/4 WCI  32
OSAGE BEACH    LGT RAIN  37  36  96 CALM      30.03R FOG
SPRINGFIELD    LGT RAIN  38  37  97 S7        30.00R FOG     WCI  33
BRANSON        LGT RAIN  37  37 100 CALM      30.02R FOG
JOPLIN         LGT RAIN  40  40 100 CALM      30.03R FOG
WEST PLAINS    CLOUDY    37  37 100 S3        30.01R FOG

$$

IAZ060-094-KSZ022-034>040-054-083-096-NEZ052-066-093-041500-
...KANSAS...SOUTHEAST NEBRASKA AND IOWA...

CITY           SKY/WX    TMP DP  RH WIND       PRES   REMARKS
TOPEKA         CLOUDY    38  35  89 W3        30.03R
MANHATTAN      CLOUDY    38  35  89 W6        30.03R WCI  33
EMPORIA        CLOUDY    37  36  96 W3        30.02R
CHANUTE        LGT RAIN  41  39  93 CALM      30.03R
WICHITA        PTCLDY    37  36  96 W3        30.04R
OMAHA          CLOUDY    34  30  85 SW5       29.98F WCI  30
LINCOLN        CLOUDY    33  31  92 W6        30.01R WCI  28
FALLS CITY     CLOUDY    37  37 100 SW9       29.99S WCI  30
LAMONI         LGT SNOW  33  33 100 S3        29.98S VSB 3/4
DES MOINES     LGT SNOW  34  32  92 S8        29.98F VSB 3/4 WCI  27

$$





USA.gov is the U.S. government's official web portal to all federal, state and local government web resources and services.